Wind_Speed
6 7 6 6 6 6 6 5 5 4 4 3 3 3 2 2 2 2 2 3 3 3 4 4 5 5 6 6 6 6 6 6 6 6 6 6 7 7 7 9 9 8 8
6 7 6 6 5 6 6 6 5 5 4 3 3 2 2 2 1 2 2 2 2 3 3 3 4 4 5 5 6 5 6 5 6 6 6 6 6 7 8 8 8 8 7
7 6 5 5 4 5 6 5 4 4 4 3 2 2 2 2 2 2 2 2 2 2 2 3 3 4 4 4 5 5 5 6 6 6 6 6 6 7 7 8 8 7 7
6 5 5 5 5 5 5 5 4 3 3 3 2 2 2 2 2 2 2 2 1 1 1 2 3 3 3 4 4 4 5 5 6 6 7 6 7 7 7 7 7 7 6
5 5 5 5 4 4 4 4 3 2 2 3 3 2 2 2 2 2 2 2 2 2 1 1 1 2 3 3 4 4 5 5 6 6 6 7 7 8 8 7 7 6 6
5 5 4 4 4 3 2 3 2 2 2 2 3 3 3 2 2 2 2 3 2 1 1 1 1 1 2 3 4 4 4 5 5 6 6 7 8 8 7 7 6 6 5
5 4 3 3 3 2 2 2 1 1 1 2 3 3 3 3 3 3 2 2 2 1 1 1 1 2 3 3 4 4 4 4 5 6 6 7 7 7 7 6 6 5 5
5 3 2 1 1 1 1 1 1 1 2 2 3 3 4 3 3 3 3 2 2 1 1 1 1 2 3 3 3 4 4 4 5 5 6 6 6 6 5 5 5 5 5
6 3 2 1 0 1 1 1 2 2 3 3 3 3 4 4 4 3 3 2 2 2 2 2 2 3 3 3 3 3 3 4 4 5 5 5 5 5 5 4 5 4 4
6 5 2 0 1 2 2 3 3 3 3 4 4 4 4 3 3 3 3 2 1 1 1 1 2 3 3 3 3 3 3 3 4 4 4 4 5 4 4 4 4 4 3
6 5 3 2 1 2 2 3 3 4 4 4 5 4 4 4 3 3 3 2 2 2 2 1 2 2 3 3 3 3 3 3 4 3 3 4 4 4 3 3 2 3 3
9 8 6 3 1 2 2 2 3 4 4 5 5 5 5 5 4 3 3 2 2 2 2 1 2 2 3 3 3 3 3 3 3 3 3 3 3 3 2 2 2 2 3
10 9 7 5 2 3 2 2 3 4 4 5 5 5 5 5 4 3 3 3 2 2 2 2 2 2 3 3 2 2 2 2 3 3 3 3 2 2 2 1 1 1 2
10 9 7 6 4 3 2 2 3 4 5 5 5 5 5 6 5 4 3 3 3 2 2 2 2 2 3 3 3 2 2 2 2 2 2 3 2 2 2 1 1 1 2
11 10 8 6 5 3 2 3 2 3 4 5 5 6 6 6 6 5 5 4 3 2 2 2 2 3 3 3 2 2 2 2 2 2 2 2 2 2 1 1 2 2 3
12 11 9 6 6 5 3 2 3 3 4 5 6 6 6 6 6 6 5 4 4 3 2 2 3 3 3 3 3 2 2 2 2 2 2 2 2 1 1 1 1 2 3
13 12 10 9 8 6 4 2 2 3 5 6 7 6 7 6 6 6 6 5 4 4 3 3 3 3 3 3 3 3 3 2 2 3 3 3 3 2 1 1 1 2 3
13 12 10 10 9 8 6 3 1 2 4 6 7 8 7 7 7 6 6 6 5 4 4 3 3 3 3 3 3 3 3 3 3 3 3 3 3 3 3 2 3 3 3
13 12 11 10 10 9 7 4 1 2 4 6 7 8 8 8 8 7 7 6 6 5 4 4 4 4 4 4 4 4 4 4 4 4 4 4 5 4 4 4 4 4 4
14 13 11 10 10 10 8 5 3 1 3 5 7 8 8 9 9 9 8 8 7 6 6 6 6 6 5 5 5 6 6 6 6 6 5 6 6 5 5 5 5 5 5
14 13 12 11 10 10 9 6 4 2 2 4 6 7 8 8 9 9 9 9 8 8 7 7 7 7 6 6 7 7 7 7 7 7 7 7 8 7 7 7 7 7 7
14 13 13 12 11 10 9 7 5 3 3 3 4 6 7 8 8 10 10 10 10 9 8 8 8 8 8 8 8 8 9 8 8 8 8 9 9 9 9 9 9 9 8
13 13 13 12 11 10 9 8 7 5 4 4 5 6 7 8 9 10 10 11 11 11 9 9 9 9 9 9 9 9 9 10 10 10 10 10 10 10 10 11 10 10 10
13 13 13 13 12 11 10 8 7 6 5 5 5 6 8 9 10 10 11 11 11 11 10 10 10 10 10 10 10 10 10 10 10 11 11 11 11 11 12 12 11 12 12
13 13 13 13 13 12 11 10 8 7 5 6 6 7 8 10 10 11 11 12 12 11 11 11 11 11 11 11 10 11 11 11 11 11 11 12 12 13 13 14 14 15 14
13 13 14 13 12 12 11 10 9 8 6 5 5 6 7 8 9 10 11 12 12 12 12 12 12 12 12 12 11 11 12 13 13 13 13 13 13 14 14 15 16 16 16
Wind_Direction
97 104 118 139 131 128 129 142 147 150 158 168 179 179 173 175 176 160 152 136 128 117 109 108 103 97 96 98 99 96 91 92 94 89 87 88 97 103 103 104 99 96 92
99 104 114 121 126 135 140 145 145 147 154 169 184 193 196 205 189 171 158 150 133 116 110 110 105 99 94 99 99 94 91 93 94 89 87 92 104 110 108 105 102 98 94
98 99 97 101 124 135 144 148 148 157 165 177 197 217 219 220 208 199 188 173 150 122 114 112 106 100 97 104 102 94 88 88 89 91 90 98 106 113 111 106 107 104 98
89 93 96 104 124 131 141 145 148 165 176 194 207 227 229 229 222 224 217 204 189 176 151 121 113 110 103 109 104 94 90 90 90 94 90 99 105 110 110 107 109 105 102
77 94 102 109 124 131 143 147 156 171 198 213 223 231 235 234 232 237 232 228 216 191 172 134 120 115 110 109 104 102 98 94 89 97 93 99 108 111 110 109 109 107 104
74 86 93 108 108 116 142 162 177 205 240 245 237 234 238 235 235 244 245 240 225 200 171 170 134 134 131 117 107 102 100 99 94 99 96 101 111 113 114 112 113 112 109
64 74 91 100 114 105 126 145 182 215 222 238 243 239 238 230 238 246 249 245 232 226 235 164 133 127 140 131 116 107 107 106 103 105 107 109 115 115 114 114 114 116 112
50 65 95 102 137 147 151 180 202 222 248 245 238 241 230 237 251 255 255 250 241 232 206 173 154 137 135 129 117 113 107 93 100 106 108 114 117 117 115 120 118 120 118
42 44 76 91 156 179 184 219 233 231 239 242 239 244 245 245 246 248 250 240 240 220 194 194 155 139 139 126 120 122 121 107 99 101 108 118 120 119 121 125 125 127 123
36 32 17 0 252 227 233 243 242 239 236 236 237 238 236 235 235 233 228 230 226 201 195 182 142 129 132 126 120 118 120 121 110 109 118 130 131 127 124 126 132 137 136
32 28 21 341 289 248 257 251 251 243 240 238 237 234 227 230 241 232 231 236 220 206 186 158 141 130 128 124 122 122 125 126 121 126 126 136 138 132 124 122 130 147 148
27 22 15 1 324 311 277 250 254 249 243 238 232 231 227 227 236 231 229 230 217 197 182 160 141 135 132 122 122 136 142 135 130 133 140 144 148 144 131 122 130 145 153
33 27 21 8 346 329 315 279 265 248 245 233 222 219 219 224 223 215 216 213 203 192 189 177 155 149 139 128 126 141 153 148 141 141 153 158 166 168 152 141 140 176 177
33 30 27 15 4 334 315 310 282 239 234 227 218 215 219 219 211 208 209 206 205 207 206 185 161 153 155 150 143 147 170 163 155 146 165 174 175 179 183 188 208 203 205
33 30 29 28 22 1 324 311 293 248 231 215 212 215 220 214 211 210 202 200 205 215 204 190 185 185 181 176 162 172 189 169 171 176 175 180 180 181 185 208 219 224 219
30 29 28 28 22 15 344 310 301 254 223 211 207 213 214 214 216 214 203 203 207 212 208 199 196 196 196 196 190 197 208 204 204 201 199 195 193 191 199 223 226 234 231
24 23 21 22 22 21 9 342 299 246 225 214 208 210 214 211 211 209 209 205 205 206 207 209 207 201 202 203 204 206 218 231 223 213 211 207 207 212 228 246 243 243 246
19 18 18 18 19 18 19 18 301 241 224 218 214 215 214 207 204 208 206 206 209 210 209 212 216 210 214 212 212 219 223 226 227 229 227 225 228 234 243 256 254 254 257
19 18 19 16 14 13 13 18 344 229 225 221 220 221 219 216 215 215 213 213 212 214 216 221 223 227 230 230 230 231 231 232 239 246 243 243 244 249 254 260 256 262 266
19 19 17 12 10 7 11 20 15 256 220 219 221 225 225 221 220 218 220 220 219 220 223 228 231 235 240 241 241 239 242 247 251 256 255 253 252 252 254 257 261 265 267
15 16 15 10 10 6 8 14 13 358 239 227 228 227 227 226 224 222 222 222 223 226 228 233 239 237 241 243 242 245 247 255 255 255 258 257 255 258 260 258 259 261 265
11 14 15 12 11 7 4 4 1 340 291 260 231 224 229 232 228 224 228 228 227 228 231 234 240 243 246 244 242 244 249 254 256 255 257 259 260 261 261 259 262 263 265
8 11 11 9 7 4 0 355 350 341 301 267 250 240 238 235 234 234 232 233 230 231 232 234 241 245 249 249 246 246 249 253 255 258 260 261 262 261 260 259 262 262 265
5 7 8 7 6 3 359 352 342 326 303 282 269 249 241 238 238 234 228 229 230 232 234 238 242 247 252 254 252 250 253 255 257 260 263 260 259 260 261 262 264 265 267
2 4 4 4 4 5 2 355 343 331 308 296 283 262 246 238 239 234 229 228 230 235 237 239 243 248 252 257 256 254 256 258 259 261 263 265 263 261 262 265 267 268 270
359 1 3 2 -0 1 359 353 343 336 325 311 297 274 256 242 238 233 232 233 234 239 241 242 245 250 253 255 257 258 260 262 263 263 264 266 268 265 265 268 268 268 271
Height
5903 5903 5903 5903 5904 5905 5906 5907 5907 5908 5909 5910 5910 5910 5911 5911 5911 5911 5912 5911 5911 5911 5910 5910 5910 5910 5910 5910 5909 5909 5909 5908 5908 5908 5907 5907 5907 5907 5907 5907 5907 5907 5907
5904 5904 5905 5905 5905 5906 5907 5907 5908 5909 5910 5910 5911 5911 5912 5912 5912 5912 5912 5912 5912 5912 5911 5911 5911 5911 5911 5910 5910 5910 5909 5909 5909 5909 5908 5908 5908 5908 5908 5909 5909 5908 5909
5905 5905 5906 5906 5906 5907 5908 5909 5909 5910 5911 5911 5912 5912 5913 5913 5913 5913 5913 5913 5912 5912 5912 5912 5911 5911 5911 5911 5911 5911 5910 5910 5910 5910 5909 5909 5909 5909 5909 5910 5910 5910 5910
5906 5906 5907 5907 5907 5908 5909 5910 5910 5911 5911 5912 5912 5913 5913 5913 5913 5914 5914 5913 5913 5913 5913 5912 5912 5912 5912 5912 5912 5912 5911 5911 5911 5911 5910 5910 5910 5910 5911 5911 5911 5911 5911
5907 5907 5908 5908 5908 5909 5910 5910 5911 5911 5912 5912 5913 5913 5914 5914 5914 5914 5914 5914 5914 5913 5913 5913 5913 5913 5912 5912 5912 5912 5912 5912 5912 5912 5911 5911 5911 5912 5912 5912 5912 5912 5912
5908 5908 5908 5909 5909 5910 5910 5911 5911 5912 5912 5913 5913 5913 5914 5914 5914 5915 5914 5914 5914 5914 5914 5914 5913 5913 5913 5913 5913 5913 5913 5912 5912 5912 5912 5912 5912 5913 5913 5913 5913 5913 5913
5909 5909 5909 5910 5910 5910 5911 5911 5912 5912 5912 5912 5913 5914 5914 5915 5915 5915 5915 5915 5914 5914 5914 5914 5914 5914 5914 5914 5914 5914 5913 5913 5913 5913 5913 5913 5914 5914 5914 5914 5914 5914 5914
5909 5910 5910 5910 5910 5911 5911 5912 5912 5912 5912 5912 5913 5914 5914 5915 5915 5915 5915 5915 5915 5915 5914 5915 5915 5914 5914 5914 5914 5914 5914 5914 5914 5914 5914 5914 5915 5915 5915 5915 5915 5915 5915
5910 5910 5910 5910 5910 5910 5911 5911 5911 5912 5912 5912 5913 5913 5914 5914 5915 5915 5915 5915 5915 5915 5915 5915 5915 5915 5915 5915 5915 5915 5915 5915 5915 5915 5915 5915 5915 5916 5916 5915 5915 5915 5916
5911 5910 5910 5910 5910 5910 5910 5910 5911 5911 5911 5912 5912 5913 5913 5914 5914 5915 5915 5915 5915 5915 5915 5915 5915 5915 5915 5915 5915 5915 5915 5915 5916 5916 5916 5916 5916 5916 5916 5916 5916 5916 5916
5911 5910 5910 5910 5909 5910 5910 5910 5910 5910 5911 5911 5912 5912 5913 5914 5914 5915 5915 5915 5915 5915 5915 5915 5915 5915 5915 5916 5916 5916 5916 5916 5916 5916 5916 5917 5917 5917 5917 5917 5916 5916 5916
5911 5910 5909 5909 5909 5909 5909 5909 5909 5909 5910 5910 5911 5911 5912 5913 5914 5914 5915 5915 5915 5915 5915 5915 5915 5916 5916 5916 5916 5916 5917 5917 5917 5917 5917 5917 5917 5917 5917 5917 5917 5916 5916
5911 5910 5909 5908 5908 5908 5908 5908 5908 5908 5909 5909 5910 5911 5911 5912 5913 5914 5914 5915 5915 5915 5915 5915 5916 5916 5916 5916 5916 5916 5917 5917 5917 5917 5917 5917 5917 5917 5917 5917 5917 5916 5916
5912 5911 5910 5908 5908 5907 5907 5907 5907 5907 5908 5908 5909 5910 5911 5911 5912 5913 5914 5915 5915 5915 5915 5915 5916 5916 5916 5917 5917 5917 5917 5917 5917 5917 5917 5917 5917 5917 5917 5917 5916 5916 5916
5912 5911 5910 5909 5908 5907 5906 5906 5906 5906 5907 5907 5908 5909 5910 5911 5912 5913 5913 5914 5915 5915 5915 5915 5916 5916 5916 5917 5917 5917 5917 5917 5917 5917 5917 5917 5917 5917 5917 5917 5916 5916 5916
5912 5911 5909 5908 5907 5906 5906 5905 5905 5905 5906 5907 5908 5908 5909 5910 5911 5912 5913 5913 5914 5914 5915 5915 5915 5916 5916 5916 5917 5917 5917 5917 5917 5917 5917 5917 5917 5917 5917 5916 5916 5916 5915
5912 5910 5909 5908 5906 5906 5905 5905 5904 5904 5905 5906 5907 5907 5908 5909 5911 5912 5912 5913 5914 5914 5915 5915 5915 5916 5916 5916 5916 5916 5916 5916 5916 5916 5916 5917 5917 5916 5916 5916 5915 5915 5915
5912 5911 5909 5908 5906 5905 5904 5904 5904 5903 5903 5904 5905 5906 5907 5908 5910 5911 5912 5912 5913 5913 5914 5915 5915 5915 5916 5916 5916 5916 5916 5916 5916 5916 5916 5916 5916 5916 5915 5915 5915 5915 5914
5913 5911 5910 5908 5906 5905 5903 5902 5902 5902 5903 5903 5904 5905 5906 5907 5908 5909 5910 5911 5912 5913 5913 5914 5914 5915 5915 5915 5915 5915 5915 5915 5915 5915 5915 5915 5915 5915 5914 5914 5914 5914 5913
5914 5912 5910 5908 5907 5905 5903 5902 5902 5902 5902 5902 5902 5903 5904 5905 5906 5908 5909 5910 5911 5912 5912 5913 5913 5914 5914 5914 5914 5914 5914 5915 5914 5914 5914 5914 5914 5913 5913 5913 5913 5913 5912
5915 5913 5911 5909 5906 5905 5903 5902 5901 5901 5901 5901 5901 5902 5903 5904 5905 5906 5907 5908 5909 5910 5911 5912 5912 5912 5912 5913 5913 5913 5913 5913 5913 5913 5913 5913 5912 5912 5912 5912 5911 5911 5911
5916 5913 5911 5908 5906 5905 5903 5902 5901 5900 5900 5899 5900 5900 5901 5902 5903 5904 5905 5907 5908 5908 5909 5910 5910 5911 5911 5911 5911 5911 5912 5913 5912 5912 5911 5911 5911 5910 5910 5910 5910 5909 5909
5916 5914 5911 5909 5907 5905 5903 5901 5900 5898 5898 5898 5898 5899 5899 5900 5901 5902 5903 5904 5905 5906 5907 5908 5908 5909 5909 5909 5909 5910 5910 5910 5910 5910 5909 5909 5909 5908 5908 5908 5907 5907 5906
5916 5914 5911 5909 5906 5904 5902 5901 5899 5898 5897 5897 5896 5897 5897 5898 5898 5899 5900 5902 5903 5904 5905 5906 5906 5907 5907 5907 5907 5907 5908 5908 5908 5907 5907 5907 5906 5906 5905 5905 5905 5904 5903
5916 5913 5911 5908 5906 5904 5902 5900 5898 5897 5896 5895 5895 5895 5895 5895 5896 5897 5898 5899 5900 5901 5902 5903 5903 5904 5904 5904 5905 5905 5905 5905 5905 5905 5904 5904 5904 5903 5903 5902 5902 5901 5900
5916 5913 5911 5908 5906 5904 5902 5899 5897 5896 5895 5894 5893 5893 5893 5893 5893 5894 5895 5897 5898 5899 5899 5900 5901 5901 5901 5901 5902 5902 5902 5902 5902 5902 5901 5901 5900 5900 5899 5899 5898 5897 5896